SCP
1 1 1 2 2 3 2 2 1 1 1 1 1 2 2 2 2 1 1 1 0 0 0 0 0 0 0 0 0 0 0 0 0 0 0 0 1 1
2 2 2 2 3 3 3 2 1 1 1 1 1 2 2 2 2 2 1 1 0 0 0 0 0 0 0 0 0 0 0 0 0 0 0 0 1 1
2 2 3 3 3 4 3 2 1 1 1 2 2 2 2 1 1 2 2 1 1 0 0 0 0 0 0 0 0 0 0 0 0 0 0 0 1 1
5 4 4 4 5 5 4 3 2 2 2 2 2 2 2 2 1 2 2 2 1 1 0 0 0 0 0 0 0 0 0 0 0 0 0 0 0 1
7 7 6 7 7 7 5 3 2 2 2 2 2 2 2 2 1 1 2 2 2 1 0 0 0 0 0 0 0 0 0 0 0 0 0 0 0 0
9 8 8 8 9 8 6 3 2 2 2 2 2 2 2 1 1 1 1 2 1 1 0 0 0 0 0 0 0 0 0 0 0 0 0 0 0 0
9 9 9 9 9 8 5 3 2 2 2 3 2 2 1 1 1 1 1 1 1 0 0 0 0 0 0 0 0 0 0 0 0 0 0 0 0 0
8 8 8 7 7 5 3 2 2 2 2 2 2 2 1 1 1 1 1 1 0 0 0 0 0 0 0 0 0 0 0 0 0 0 0 0 0 0
7 7 7 6 4 3 2 1 1 1 2 2 2 2 1 1 1 1 1 1 0 0 0 0 0 0 0 0 0 0 0 0 0 0 0 0 0 0
7 7 7 4 2 2 2 2 2 2 1 1 2 2 1 1 1 1 1 1 1 1 1 0 0 0 0 0 0 0 0 0 0 0 0 0 0 0
6 7 5 4 2 2 2 3 3 2 1 1 1 1 1 1 0 0 0 0 0 0 1 0 0 0 0 0 0 0 0 0 0 0 0 0 0 0
4 4 4 3 2 1 2 3 3 2 1 1 0 0 0 0 0 0 0 0 0 0 1 1 0 0 0 0 0 0 0 0 0 0 0 0 0 0
3 3 2 2 1 1 2 2 2 1 1 1 1 1 0 0 0 0 0 1 1 1 1 1 1 1 0 0 0 0 0 0 0 0 0 0 0 0
3 3 2 1 1 1 1 1 1 1 1 1 1 1 1 1 1 1 1 1 1 1 1 1 0 0 0 0 0 0 0 0 0 0 0 0 0 0
2 2 1 1 1 0 0 0 0 1 1 1 2 2 2 2 1 1 1 1 1 0 0 0 0 0 0 0 0 0 0 0 0 0 0 0 0 0
1 1 1 1 1 1 1 1 1 1 1 2 2 2 2 2 2 2 1 1 1 1 1 1 1 0 0 0 0 0 0 0 0 0 0 0 0 0
1 2 1 1 1 1 1 1 1 1 1 1 1 2 2 1 1 2 2 1 1 1 1 1 1 1 0 0 0 0 0 0 0 0 0 0 0 0
3 3 3 2 2 2 2 2 2 1 1 1 1 1 1 1 1 1 2 2 2 2 1 1 1 0 0 0 0 0 0 0 0 0 0 0 0 0
4 4 4 3 3 2 2 2 2 2 1 1 1 1 1 1 1 1 1 1 1 1 1 1 0 0 0 0 0 0 0 0 0 0 0 0 0 0
5 4 4 3 3 2 2 2 2 2 2 2 2 2 2 2 1 1 1 1 1 1 1 1 1 0 0 0 0 0 0 0 0 0 0 0 0 0
4 3 3 3 2 2 2 2 2 2 2 2 2 2 2 2 2 1 1 1 1 1 1 1 1 1 0 0 0 0 0 0 0 0 0 0 0 0
2 2 3 3 3 2 2 2 2 2 2 2 2 2 1 2 2 1 1 1 1 1 1 1 1 1 1 1 1 1 1 0 0 0 0 0 0 0
1 2 4 4 3 2 2 2 1 2 2 2 2 1 1 1 1 1 1 1 1 1 1 1 1 1 1 1 1 1 1 1 1 0 0 0 0 0
Wind_Speed
1 1 1 2 1 1 1 2 2 2 2 1 1 1 1 2 4 3 3 4 4 4 4 4 3 3 3 2 2 1 1 1 1 1 2 3 4 4
1 0 1 2 2 1 1 2 1 2 1 0 1 1 1 2 4 3 3 5 4 5 5 4 4 4 3 2 2 2 1 1 1 1 1 1 2 2
1 1 1 1 1 2 2 1 1 0 1 1 0 1 1 2 3 2 2 3 3 5 6 6 5 4 4 3 2 2 2 2 2 2 2 2 2 1
1 0 1 1 1 2 2 1 1 1 1 1 1 1 1 2 3 2 2 2 2 5 7 7 6 5 4 4 3 3 2 3 2 2 2 2 2 2
0 0 1 1 1 1 2 1 1 1 1 2 2 1 1 1 2 1 1 1 2 3 6 6 6 6 5 4 4 3 3 3 2 2 2 2 1 2
0 0 0 1 1 2 1 1 1 1 1 1 1 1 1 1 1 1 1 1 1 2 2 4 5 6 6 5 4 4 3 3 2 2 2 2 1 1
1 1 1 1 0 1 1 1 1 1 1 1 1 1 1 1 2 2 1 1 1 1 2 2 2 2 3 4 4 4 3 3 3 2 2 1 1 1
1 1 2 2 1 1 1 1 1 1 1 1 1 1 2 1 1 1 2 1 1 1 1 1 2 2 2 2 4 5 4 4 3 3 2 2 1 1
1 2 2 0 1 1 1 1 2 3 3 2 2 2 1 2 2 2 2 2 1 2 1 1 1 2 2 3 6 6 5 5 4 4 4 3 2 2
1 1 0 1 1 2 2 2 1 1 2 2 2 2 1 1 2 3 2 2 1 1 1 1 1 1 2 3 7 8 6 6 5 5 5 4 4 4
1 0 0 0 2 2 1 1 1 1 0 1 3 3 2 2 2 1 1 1 1 1 1 1 1 1 1 2 4 8 8 8 7 7 6 5 4 4
2 1 1 1 1 1 1 1 2 1 1 0 1 2 2 3 4 3 2 1 1 1 1 1 1 0 1 1 2 4 4 6 7 7 7 6 4 3
2 2 1 2 1 0 1 2 2 2 2 2 1 1 1 2 3 3 2 2 1 1 1 1 1 1 1 1 2 3 3 3 4 4 6 7 6 4
1 1 2 2 2 1 1 2 2 2 2 1 1 1 1 1 1 2 2 2 2 2 2 2 1 1 1 1 1 1 2 3 3 3 4 5 6 6
1 2 2 3 2 2 3 2 2 2 1 1 1 2 2 2 1 1 2 2 2 3 3 3 3 2 2 2 2 1 2 2 3 3 3 3 4 4
1 2 3 3 2 2 2 3 3 2 2 2 1 1 1 1 2 2 2 2 2 2 3 3 3 3 3 2 2 2 2 2 3 3 3 3 4 4
2 2 2 2 2 2 2 2 2 1 2 1 1 1 1 1 2 2 2 2 2 3 3 3 3 3 3 2 2 2 2 2 2 3 3 3 4 4
3 2 1 1 1 1 2 2 2 2 2 1 1 1 1 1 1 1 2 2 3 3 2 2 2 2 2 3 4 3 3 3 2 3 3 3 4 4
2 2 1 1 1 1 1 1 1 1 1 1 1 1 2 1 1 2 2 2 3 3 3 2 3 3 4 4 4 5 4 3 3 3 3 3 4 4
2 1 1 1 1 1 1 1 1 1 1 1 1 2 2 2 2 2 2 3 3 3 3 3 3 4 5 5 3 3 7 5 3 4 4 3 3 2
2 1 1 1 0 0 1 1 1 0 0 1 1 2 2 2 2 3 3 3 4 3 4 4 4 6 4 3 3 3 3 6 5 3 3 3 3 3
1 1 1 0 0 0 0 0 1 1 1 1 2 2 2 3 3 4 3 3 3 4 4 3 3 3 3 4 5 4 3 3 5 6 5 5 3 3
1 1 1 0 1 1 0 1 1 1 1 1 2 2 3 3 3 4 4 4 3 4 4 4 3 3 4 4 4 3 3 3 3 3 4 6 7 7
Wind_Direction
251 260 263 276 284 291 254 225 219 235 242 218 191 152 137 131 142 137 119 136 146 153 156 156 152 146 139 137 141 141 141 159 239 227 218 223 222 222
221 279 293 302 310 313 281 263 255 238 234 220 223 172 151 146 134 132 124 138 154 154 153 149 143 141 141 141 139 132 119 124 143 141 144 178 188 203
245 227 253 292 321 318 317 299 284 162 210 244 100 106 130 131 127 143 150 159 148 155 159 153 147 145 140 135 131 128 121 115 116 118 126 142 148 157
225 307 310 301 294 297 299 298 291 251 204 219 216 206 177 152 150 168 167 153 144 162 165 162 158 155 145 136 129 119 109 102 97 103 112 126 149 156
165 243 289 304 285 281 279 291 278 277 217 204 211 196 165 152 153 166 140 131 154 150 161 166 169 166 156 148 132 121 114 110 99 96 97 98 108 129
133 185 288 294 290 282 269 276 275 269 240 203 183 170 158 170 160 173 162 153 156 139 137 155 172 172 159 149 143 136 133 130 121 112 103 94 94 98
206 190 146 124 82 305 292 285 279 276 263 223 191 169 176 173 188 194 180 161 170 141 141 161 164 162 163 158 156 153 151 155 156 150 146 141 136 142
232 220 186 166 158 196 233 254 236 241 267 251 225 212 205 191 196 198 178 174 210 174 160 199 165 152 146 146 158 160 161 161 163 168 174 179 190 207
283 294 288 337 146 257 239 233 236 231 231 238 249 248 215 197 191 197 191 193 203 187 160 202 160 162 165 155 158 165 172 177 183 187 193 198 209 226
231 278 316 344 342 313 247 217 206 224 243 228 221 243 229 211 195 203 194 180 156 142 136 191 197 202 165 162 176 179 186 193 201 205 206 211 216 224
204 163 166 262 343 341 266 230 199 210 268 207 196 195 195 187 166 155 179 169 197 193 147 192 212 233 188 180 187 189 194 201 207 212 215 217 222 218
182 156 111 147 62 30 255 243 234 239 253 244 207 202 198 187 180 183 192 198 211 205 170 177 198 162 249 206 191 191 204 213 216 217 217 219 219 209
189 166 125 132 132 37 281 262 254 260 243 222 206 188 187 174 173 188 194 198 217 226 185 167 215 209 215 238 217 200 195 201 206 218 218 213 215 211
214 140 135 157 175 232 247 284 287 263 249 215 183 180 184 183 188 195 194 201 211 213 193 172 207 214 218 247 251 208 211 203 192 199 198 201 216 221
87 128 163 182 197 230 233 249 266 258 254 236 211 206 195 190 181 184 191 193 213 225 210 207 210 225 232 243 236 214 218 221 205 203 196 193 203 206
195 191 190 201 224 253 231 224 224 238 251 253 242 229 184 174 188 200 208 200 210 227 236 230 221 216 239 249 240 240 221 218 210 211 205 206 208 207
200 200 196 201 210 211 208 210 221 234 253 271 285 273 234 209 209 212 211 217 223 227 227 224 222 216 224 238 247 242 235 237 219 205 212 220 215 206
196 204 211 219 225 229 226 223 222 228 243 247 261 267 258 242 233 239 235 232 237 233 227 212 204 224 241 251 240 245 239 238 231 216 217 227 228 216
186 217 224 252 255 244 230 219 225 227 244 248 248 257 262 262 254 247 246 253 251 245 240 225 211 221 240 248 243 228 236 242 232 223 224 227 233 225
206 229 221 248 264 278 282 260 240 214 230 258 265 270 264 260 259 258 255 259 260 255 251 238 223 225 237 246 247 241 224 232 229 230 232 233 229 228
206 222 226 239 234 19 354 358 10 5 322 282 275 280 280 275 270 270 266 268 267 263 260 255 247 244 243 233 244 240 223 214 219 225 230 232 236 227
212 209 227 238 106 71 75 352 332 339 326 303 297 294 288 285 282 277 272 269 261 264 269 270 266 249 244 247 250 243 236 215 223 231 237 223 213 218
213 206 202 189 185 178 248 290 298 309 322 316 304 291 286 282 278 274 269 266 269 271 275 277 273 258 254 255 256 249 239 229 219 216 238 239 227 226